GW7263 Weather Reports


time (UTC)temp
C
wind
direction
speed
KPH
gust
KPH
rain 1hr
cm
rain 24hr
cm
rain mn
cm
humidity
%
barometer
mb
20260507161545 16 248 1.6 3.2 0.00 0.58 0.33 76 1022.6
20260507160616 16 297 1.6 3.2 0.00 0.58 0.33 75 1022.7
20260507155605 17 244 1.6 1.6 0.00 0.58 0.33 72 1022.5
20260507154556 17 207 0.0 1.6 0.00 0.58 0.33 64 1022.5
20260507153546 18 204 3.2 4.8 0.00 0.58 0.33 59 1022.5
20260507152537 17 187 1.6 9.7 0.00 0.58 0.33 62 1022.5
20260507151526 18 181 1.6 3.2 0.00 0.58 0.33 59 1022.5
20260507150638 18 193 3.2 6.4 0.00 0.58 0.33 59 1022.5
20260507145608 18 178 4.8 9.7 0.00 0.58 0.33 57 1022.5
20260507144558 18 195 1.6 4.8 0.00 0.58 0.33 57 1022.6
20260507143547 18 225 3.2 14.5 0.00 0.58 0.33 62 1022.7
20260507142538 18 191 4.8 11.3 0.00 0.58 0.33 62 1022.7
20260507141527 17 167 3.2 4.8 0.00 0.58 0.33 67 1022.7
20260507140517 18 187 1.6 3.2 0.00 0.58 0.33 62 1022.5
20260507135608 16 279 1.6 3.2 0.00 0.58 0.33 77 1022.7
20260507134558 16 185 0.0 0.0 0.00 0.58 0.33 74 1022.7
20260507133550 16 184 0.0 1.6 0.00 0.58 0.33 70 1022.9
20260507132538 16 173 3.2 4.8 0.00 0.58 0.33 66 1022.8
20260507131528 19 191 1.6 3.2 0.00 0.58 0.33 59 1022.6
20260507130518 18 178 1.6 4.8 0.00 0.61 0.33 64 1022.7
20260507125610 17 196 1.6 3.2 0.00 0.69 0.33 66 1022.8
20260507124559 16 186 3.2 4.8 0.00 0.76 0.33 68 1022.9
20260507123548 15 187 3.2 9.7 0.00 0.86 0.33 79 1023.0
20260507122539 15 195 0.0 1.6 0.00 0.86 0.33 81 1023.2
20260507121530 15 191 1.6 1.6 0.00 0.86 0.33 76 1023.2
20260507120540 16 90 0.0 1.6 0.00 0.86 0.33 73 1023.2
20260507115609 16 132 0.0 1.6 0.00 0.86 0.33 74 1023.3
20260507114600 16 27 1.6 1.6 0.00 0.94 0.33 77 1023.4
20260507113549 15 95 1.6 4.8 0.00 0.99 0.33 80 1023.5
20260507112540 13 65 1.6 3.2 0.00 1.09 0.33 86 1023.8
20260507111530 13 0.0 0.0 0.00 1.19 0.33 87 1023.7
20260507110520 12 0.0 0.0 0.00 1.19 0.33 88 1023.9
20260507105611 12 306 0.0 1.6 0.03 1.19 0.33 89 1023.9
20260507104601 12 301 0.0 1.6 0.03 1.19 0.33 90 1023.7
20260507103550 11 309 1.6 1.6 0.03 1.24 0.33 91 1024.0
20260507102541 11 260 0.0 1.6 0.03 1.24 0.33 89 1023.9
20260507101532 11 277 0.0 1.6 0.00 1.22 0.30 88 1023.8
20260507100541 11 303 0.0 1.6 0.00 1.22 0.30 86 1023.7
20260507095612 12 305 3.2 6.4 0.20 1.19 0.28 80 1023.7
20260507094602 14 294 3.2 11.3 0.13 1.12 0.20 73 1023.5
20260507093611 15 64 1.6 4.8 0.00 0.99 0.08 68 1023.3
20260507092542 16 189 1.6 1.6 0.00 1.02 0.08 64 1023.0
20260507091531 16 185 3.2 4.8 0.00 1.07 0.08 64 1022.9
20260507090521 16 169 1.6 4.8 0.00 1.07 0.08 64 1022.8
20260507084603 16 196 1.6 3.2 0.00 1.09 0.08 62 1022.8
20260507083554 16 194 1.6 3.2 0.00 1.12 0.08 60 1022.9
20260507082604 17 190 1.6 3.2 0.00 1.17 0.08 61 1023.0
20260507081533 16 156 0.0 1.6 0.00 1.17 0.08 66 1023.0
20260507080523 16 164 1.6 1.6 0.00 1.19 0.08 65 1023.0
20260507075616 17 63 1.6 3.2 0.00 1.19 0.08 67 1023.1
20260507074604 16 121 1.6 1.6 0.00 1.19 0.08 68 1023.1
20260507073553 15 121 0.0 1.6 0.00 1.22 0.08 76 1023.3
20260507072543 15 122 0.0 0.0 0.00 1.27 0.08 75 1023.2
20260507071533 14 145 0.0 1.6 0.00 1.30 0.08 78 1023.2
20260507070545 11 147 0.0 1.6 0.00 1.37 0.08 86 1023.0
20260507065614 11 0.0 0.0 0.00 1.40 0.08 90 1023.1
20260507064644 10 0.0 0.0 0.00 1.45 0.08 93 1023.0
20260507063553 10 0.0 0.0 0.00 1.50 0.08 93 1023.1
20260507062544 10 0.0 0.0 0.00 1.52 0.08 93 1023.0
20260507061554 9 310 0.0 1.6 0.00 1.55 0.08 94 1023.0
20260507060525 9 312 0.0 1.6 0.00 1.60 0.08 94 1022.8
20260507055614 9 315 0.0 1.6 0.00 1.60 0.08 95 1022.7
20260507054604 9 289 0.0 1.6 0.00 1.63 0.08 95 1022.7
20260507053554 9 285 0.0 1.6 0.00 1.63 0.08 95 1022.7
20260507052545 8 0.0 0.0 0.00 1.65 0.08 95 1022.7
20260507051535 9 285 0.0 1.6 0.00 1.65 0.08 95 1022.6
20260507050546 9 285 0.0 1.6 0.00 1.68 0.08 95 1022.4
20260507045616 9 0.0 0.0 0.00 1.68 0.08 96 1022.4
20260507044606 9 345 1.6 1.6 0.00 1.68 0.08 96 1022.3
20260507043617 8 301 0.0 1.6 0.00 1.68 0.08 96 1022.4
20260507042546 8 0.0 0.0 0.00 1.68 0.08 96 1022.5
20260507041557 8 0.0 0.0 0.00 1.68 0.08 96 1022.4
20260507040525 8 0.0 0.0 0.00 1.68 0.08 96 1022.3
20260507035616 8 0.0 0.0 0.00 1.68 0.08 95 1022.2
20260507034627 8 0.0 0.0 0.00 1.68 0.08 95 1022.1
20260507033617 8 0.0 0.0 0.00 1.68 0.08 95 1022.0
20260507032607 9 298 0.0 1.6 0.00 1.68 0.08 95 1022.0
20260507031537 9 298 0.0 1.6 0.00 1.68 0.08 95 1022.0
20260507030529 9 306 0.0 1.6 0.00 1.68 0.08 95 1022.0
20260507025517 9 315 0.0 3.2 0.00 1.68 0.08 95 1022.0
20260507024608 9 359 0.0 0.0 0.00 1.68 0.08 95 1022.0
20260507023558 9 353 0.0 1.6 0.00 1.68 0.08 95 1021.9
20260507022548 9 352 0.0 1.6 0.00 1.68 0.08 95 1022.0
20260507021538 9 78 0.0 1.6 0.00 1.68 0.08 96 1022.1
20260507020548 8 0.0 0.0 0.00 1.68 0.08 96 1022.1
20260507015600 9 74 0.0 1.6 0.00 1.68 0.08 96 1022.1
20260507014609 9 353 0.0 1.6 0.00 1.68 0.08 96 1022.0
20260507013558 9 24 0.0 1.6 0.00 1.68 0.08 95 1021.9
20260507012549 9 0.0 0.0 0.00 1.68 0.08 95 1022.0
20260507011542 9 349 0.0 0.0 0.00 1.68 0.08 95 1022.1
20260507010529 9 0.0 0.0 0.00 1.68 0.08 95 1022.2
20260507005519 9 0.0 0.0 0.00 1.68 0.08 95 1022.2
20260507004632 9 306 0.0 0.0 0.00 1.68 0.08 95 1022.1
20260507003620 9 0.0 0.0 0.00 1.68 0.08 95 1022.1
20260507002549 9 13 0.0 1.6 0.00 1.68 0.08 95 1022.1
20260507001540 10 2 0.0 1.6 0.00 1.68 0.08 95 1022.0
20260507000530 10 24 0.0 0.0 0.00 1.68 0.08 94 1022.1
20260506235601 10 46 0.0 1.6 0.00 1.68 0.08 94 1022.2
20260506234610 10 66 0.0 3.2 0.00 1.68 0.08 94 1022.1
20260506233601 10 68 1.6 3.2 0.00 1.70 0.08 94 1022.1
20260506232552 10 343 1.6 1.6 0.00 1.78 0.08 95 1022.1
20260506231541 10 47 0.0 3.2 0.00 1.83 0.08 95 1022.3
20260506230531 10 357 0.0 1.6 0.00 1.85 0.08 95 1022.2
20260506225521 10 354 0.0 3.2 0.08 1.88 0.08 95 1022.2
20260506224612 10 0.0 0.0 0.08 2.01 0.08 95 1022.4
20260506223601 10 72 0.0 1.6 0.08 2.08 0.08 95 1022.2
20260506222552 10 72 0.0 1.6 0.08 2.13 0.08 95 1022.2
20260506221542 10 8 1.6 3.2 0.08 2.13 0.08 94 1022.3
20260506220532 10 355 0.0 1.6 0.05 2.11 0.05 94 1022.4
20260506215522 10 346 0.0 1.6 0.00 2.01 2.01 94 1022.3
20260506214613 10 5 0.0 1.6 0.00 2.01 2.01 94 1022.1
20260506213622 10 31 0.0 0.0 0.00 2.01 2.01 94 1022.0
20260506212553 10 105 0.0 1.6 0.00 2.01 2.01 93 1022.2
20260506211543 10 353 1.6 1.6 0.00 2.01 2.01 94 1022.0
20260506210534 10 42 1.6 3.2 0.00 2.01 2.01 94 1022.0
20260506205524 10 10 0.0 3.2 0.08 2.01 2.01 94 1022.1
20260506204613 10 3 1.6 3.2 0.08 2.01 2.01 94 1022.0
20260506203603 10 93 0.0 1.6 0.08 2.01 2.01 93 1021.9
20260506202553 10 100 0.0 1.6 0.08 2.01 2.01 93 1021.9
20260506201603 10 306 0.0 0.0 0.08 2.01 2.01 93 1021.9
20260506200555 10 326 0.0 1.6 0.05 1.98 1.98 92 1021.7
20260506195523 11 10 0.0 3.2 0.08 1.88 1.88 91 1021.4
20260506194614 11 47 0.0 1.6 0.05 1.85 1.85 89 1021.2
20260506193605 11 351 3.2 9.7 0.05 1.85 1.85 85 1021.2
20260506192554 12 349 1.6 3.2 0.05 1.85 1.85 89 1021.1
20260506191544 12 302 0.0 0.0 0.03 1.83 1.83 93 1021.0
20260506190536 12 312 1.6 1.6 0.00 1.80 1.80 91 1020.5
20260506185525 12 348 0.0 1.6 0.00 1.80 1.80 91 1020.2
20260506184616 12 0.0 0.0 0.00 1.80 1.80 92 1020.1
20260506183604 12 51 0.0 1.6 0.00 1.80 1.80 92 1019.7
20260506182556 12 346 1.6 4.8 0.00 1.80 1.80 92 1019.6
20260506181545 12 0.0 0.0 0.00 1.80 1.80 91 1019.8
20260506180535 12 319 0.0 1.6 0.00 1.80 1.80 91 1019.4
20260506175526 12 1 0.0 1.6 0.00 1.80 1.80 90 1019.1
20260506174615 12 350 0.0 1.6 0.00 1.80 1.80 90 1019.1
20260506173605 12 16 0.0 0.0 0.00 1.80 1.80 90 1019.1
20260506172637 13 295 0.0 1.6 0.00 1.80 1.80 90 1018.9
20260506171545 13 0.0 0.0 0.00 1.83 1.80 87 1018.8
20260506170535 13 284 1.6 1.6 0.00 1.83 1.80 87 1018.7
20260506165525 13 293 1.6 3.2 0.00 1.83 1.80 87 1018.5
20260506164617 13 299 1.6 3.2 0.00 1.85 1.80 88 1018.6
20260506163625 13 0.0 0.0 0.00 1.88 1.80 88 1018.5
20260506162617 13 294 0.0 1.6 0.00 1.91 1.80 89 1018.5